Kuantan, Malaysia

7:56 PM +08 on October 15, 2019 (GMT +0800)
Kuantan

Weather History for WMKD - August, 2019

Change the Weather History Date:

Tuesday, August 27, 2019

  Actual Average Record
Temperature  
Mean Temperature 82 °F -  
Max Temperature 92 °F 90 °F - ()
Min Temperature 73 °F 72 °F - ()
Cooling Degree Days 18    
Growing Degree Days 32 (Base 50)    
Moisture  
Dew Point 75 °F    
Average Humidity 86    
Maximum Humidity 95    
Minimum Humidity 64    
Precipitation  
Precipitation 1.06 in 0.30 in - ()
Sea Level Pressure  
Sea Level Pressure 29.81 in    
Wind  
Wind Speed 2 mph ()    
Max Wind Speed 9 mph    
Max Gust Speed -    
Visibility 5.1 miles    
Events Rain , Thunderstorm    
T = Trace of Precipitation, MM = Missing Value Source: Averaged Metar Reports

Daily Weather History Graph

Daily Weather History Graph

Search for Another Location

Airport or City:

Astronomy

Aug. 27, 2019 Rise Set
Actual Time 7:02 AM +08 7:14 PM +08
Civil Twilight 6:41 AM +08 7:35 PM +08
Nautical Twilight 6:17 AM +08 8:00 PM +08
Astronomical Twilight 5:52 AM +08 8:24 PM +08
Moon 3:39 AM +08 (8/27) 4:21 PM +08 (8/27)
Length of Visible Light 12h 54m
Length of Day
12h 12m
Waning Crescent, 15% of the Moon is Illuminated
Aug 27
Waning Crescent
Aug 30
New
Sep 6
First Quarter
Sep 14
Full
Sep 22
Last Quarter

Hourly Weather History & Observations

Time (+08) Temp. Heat Index Dew Point Humidity Pressure Visibility Wind Dir Wind Speed Gust Speed Precip Events Conditions
12:00 AM 75.2 °F - 73.4 °F 94% 29.86 in 5.0 mi Calm Calm - N/A   Mostly Cloudy
1:00 AM 75.2 °F - 73.4 °F 94% 29.86 in 5.0 mi Variable 1.2 mph - N/A   Mostly Cloudy
2:00 AM 75 °F - 73 °F 91% 29.83 in 5 mi NNW 3.5 mph - -   Haze
2:00 AM 75.2 °F - 73.4 °F 94% 29.83 in 5.0 mi NNW 3.5 mph - N/A   Mostly Cloudy
3:00 AM 75.2 °F - 73.4 °F 94% 29.80 in 5.0 mi Variable 2.3 mph - N/A   Mostly Cloudy
4:00 AM 75.2 °F - 73.4 °F 94% 29.80 in 5.0 mi Calm Calm - N/A   Mostly Cloudy
5:00 AM 75 °F - 73 °F 92% 29.82 in 5 mi Calm Calm - -   Mist
5:00 AM 75.2 °F - 73.4 °F 94% 29.80 in 5.0 mi Calm Calm - N/A   Mostly Cloudy
6:00 AM 75.2 °F - 73.4 °F 94% 29.80 in 5.0 mi Calm Calm - N/A   Mostly Cloudy
7:00 AM 75.2 °F - 73.4 °F 94% 29.80 in 5.6 mi Calm Calm - N/A   Mostly Cloudy
8:00 AM 76 °F - 74 °F 91% 29.85 in 2 mi Calm Calm - -   Mist
8:00 AM 75.2 °F - 73.4 °F 94% 29.83 in 2.5 mi Calm Calm - N/A   Mostly Cloudy
9:00 AM 78.8 °F - 75.2 °F 89% 29.86 in 2.5 mi Calm Calm - N/A   Mostly Cloudy
10:00 AM 84.2 °F 94.1 °F 77.0 °F 79% 29.86 in 3.7 mi Variable 2.3 mph - N/A   Mostly Cloudy
11:00 AM 87 °F - 78 °F 68% 29.87 in 6 mi SSW 2.3 mph - -   Haze
1:00 PM 87.8 °F 102.5 °F 78.8 °F 75% 29.80 in 6.2 mi Variable 4.6 mph - N/A   Mostly Cloudy
2:00 PM 90 °F - 79 °F 64% 29.79 in 7 mi South 3.5 mph - -   Haze
2:00 PM 89.6 °F 104.7 °F 78.8 °F 70% 29.77 in 6.2 mi Variable 3.5 mph - N/A   Mostly Cloudy
4:00 PM 91.4 °F 111.0 °F 80.6 °F 71% 29.71 in 6.2 mi Variable 3.5 mph - N/A   Mostly Cloudy
5:00 PM 82 °F - 77 °F 80% 29.74 in 6 mi NNE 4.6 mph - - Rain Light Rain Showers
5:00 PM 82.4 °F 90.9 °F 77.0 °F 84% 29.74 in 6.2 mi Variable 4.6 mph - N/A Rain Light Rain Showers
6:00 PM 82.4 °F 89.5 °F 75.2 °F 79% 29.74 in 6.2 mi NNW 3.5 mph - N/A   Mostly Cloudy
7:00 PM 82.4 °F 90.9 °F 77.0 °F 84% 29.77 in 5.6 mi Variable 2.3 mph - N/A   Mostly Cloudy
8:00 PM 81 °F - 76 °F 80% 29.80 in 6 mi NE 2.3 mph - -   Mostly Cloudy
8:00 PM 80.6 °F 86.2 °F 75.2 °F 84% 29.80 in 6.2 mi Variable 2.3 mph - N/A   Mostly Cloudy
9:00 PM 78.8 °F - 75.2 °F 89% 29.83 in 6.2 mi NW 3.5 mph - N/A Rain Light Rain
10:00 PM 78.8 °F - 75.2 °F 89% 29.89 in 6.2 mi West 9.2 mph - N/A Rain , Thunderstorm Light Thunderstorms and Rain
11:00 PM 74 °F - 73 °F 95% 29.89 in 4 mi ESE 3.5 mph - - Rain , Thunderstorm Thunderstorms and Rain
11:00 PM 75.2 °F - 73.4 °F 94% 29.89 in 3.7 mi ESE 3.5 mph - N/A Rain , Thunderstorm Thunderstorms and Rain